Regional Weather Roundup
Issued by NWS

Home | Current Version | Previous Version | Graphics & Text | Print | Product List | Glossary On
Versions: 1 2 3 4 5 6 7 8 9 10 11 12 13 14 15 16 17 18 19 20 21 22 23 24 25 26 27 28 29 30 31 32 33 34 35 36 37 38 39 40 41 42 43 44 45 46 47 48 49 50
000
ASUS43 KFSD 211602
RWRSD

WEATHER ROUNDUP FOR SOUTH DAKOTA
NATIONAL WEATHER SERVICE SIOUX FALLS SD
1000 AM CST FRI NOV 21 2014

NOTE: "FAIR" INDICATES FEW OR NO CLOUDS BELOW 12,000 FEET WITH NO
SIGNIFICANT WEATHER AND/OR OBSTRUCTIONS TO VISIBILITY.


SDZ001>005-009-010-012>017-211700-
NORTHWEST AND NORTH CENTRAL SOUTH DAKOTA

CITY           SKY/WX    TMP DP  RH WIND       PRES   REMARKS
BUFFALO          N/A     37  26  64 W8        29.73R
FAITH            N/A     37  25  61 W7        29.81S
MOBRIDGE       SUNNY     23  19  85 S7        29.79F WCI  15
$$

SDZ012>016-024>037-041>051-057-063-072>074-211700-
SOUTHWEST AND SOUTH CENTRAL SOUTH DAKOTA

CITY           SKY/WX    TMP DP  RH WIND       PRES   REMARKS
RAPID CTY ARPT MOSUNNY   44  26  49 CALM      29.84S
PIERRE         MOSUNNY   21  16  81 SW7       29.85F WCI  12
CUSTER         MOSUNNY   38  21  50 SW6       29.85F
ELLSWORTH AFB  PTSUNNY   41  25  53 W3        29.83S
PHILIP         MOSUNNY   31  21  66 W8        29.85S WCI  23
PINE RIDGE     PTSUNNY   35  24  64 W5        29.88S
WINNER         FAIR      36  25  64 SW15      29.87S
$$

SDZ004>011-016>023-039-040-211700-
NORTHEAST SOUTH DAKOTA

CITY           SKY/WX    TMP DP  RH WIND       PRES   REMARKS
ABERDEEN       MOSUNNY   22  16  78 S18       29.88F WCI   7
WATERTOWN      SUNNY     22  17  81 S20G31    29.91S WCI   7
SISSETON         N/A     27  20  75 S13       29.88F WCI  16
$$

SDZ017-020-022-023-036>040-048>070-211700-
SOUTHEAST SOUTH DAKOTA

CITY           SKY/WX    TMP DP  RH WIND       PRES   REMARKS
SIOUX FALLS    MOSUNNY   25  18  74 S28G39    30.03F WCI   9
HURON          PTSUNNY   25  18  74 S15G25    29.92F WCI  13
CHAMBERLAIN    MOSUNNY   32  24  72 S10       29.88F WCI  24
MITCHELL       SUNNY     27  20  75 S16       29.96F WCI  15
YANKTON        MOSUNNY   28  21  74 S17       30.06F WCI  16
$$

ABBREVIATIONS USED IN REMARKS
   TC - TEMPERATURE IN CELSIUS
  WCI - WIND CHILL INDEX
   HX - HEAT INDEX
  VSB - VISIBILITY




USA.gov is the U.S. government's official web portal to all federal, state and local government web resources and services.